Location: Barruelo
(41.2448°N, 3.8231°W)
Time: 06:43:12
(UTC+00:00)

SOZ - Pass Details

Date: 14 March 2026
Orbit: 299 x 12047 km, 52.0° (Epoch: 14 April)

Event Time Altitude Azimuth Distance (km) Brightness Sun altitude
Rises 05:42:42 0° 240° (WSW) 14,112 11.4 -9.5°
Reaches altitude 10° 05:58:32 10° 245° (WSW) 10,780 10.8 -6.5°
Maximum altitude 06:28:23 65° 327° (NNW) 2,200 7.7 -0.9°
Drops below altitude 10° 06:35:04 10° 51° (NE) 2,819 9.2 0.3°
Sets 06:36:39 0° 55° (NE) 3,375 9.8 0.6°
